Location: Three Guys Observatory
(38.6418°N, 87.1521°W)
Time: 04:55:33
(UTC-05:00)

ISS - Visible Passes

Search period start: 11 December 2016 00:00
Search period end: 21 December 2016 00:00
Orbit: 401 x 409 km, 51.6° (Epoch: 11 December)

Date Brightness Start Highest point End Pass type
(mag) Time Alt. Az. Time Alt. Az. Time Alt. Az.
13 Dec -1.0 18:45:21 10° NNW 18:46:41 13° N 18:46:41 13° N visible
14 Dec -0.7 19:29:01 10° NW 19:29:42 14° NNW 19:29:42 14° NNW visible
15 Dec -1.8 18:37:17 10° NNW 18:39:51 20° NNE 18:40:09 20° NNE visible
16 Dec -2.2 19:21:16 10° NW 19:23:28 38° NW 19:23:28 38° NW visible
17 Dec -2.7 18:29:21 10° NW 18:32:29 38° NNE 18:34:22 19° E visible
17 Dec -0.1 20:06:15 10° W 20:07:05 15° W 20:07:05 15° W visible
18 Dec -2.1 19:13:45 10° WNW 19:16:53 41° SW 19:18:21 25° S visible
19 Dec -3.3 18:21:35 10° NW 18:24:53 87° SW 18:28:11 10° SE visible
20 Dec -0.2 19:06:52 10° W 19:09:01 16° SW 19:11:09 10° S visible
